This demonstration page uses our WeatherBlox Daily Observations layout. Learn more.

Left ArrowRight Arrow

Hourly Observations for June 20, 2021

Temp ( °F °C ) Dew Point ( °F °C ) Humidity (%) Winds ( mph kmh ) Pressure ( in mb ) Visibility ( mi km ) Precip ( " mm )
12:59 am 00:59 Partly Cloudy 81 27.2 68 20 65 65 SW 10 17 29.87 1012 9 14 0.00 0.00
1:59 am 01:59 Mostly Clear 81 27.2 68 20 65 65 SW 10 17 29.88 1012 9 14 0.00 0.00
2:59 am 02:59 Clear 80 26.7 68 20 67 67 SW 9 15 29.88 1012 9 14 0.00 0.00
3:59 am 03:59 Mostly Clear 79 26.1 68 20 69 69 SW 10 17 29.89 1012 9 14 0.00 0.00
4:59 am 04:59 Mostly Cloudy 79 26.1 66 18.9 65 65 WSW 12 19 29.89 1012 10 16 0.00 0.00
5:59 am 05:59 Mostly Cloudy 78 25.6 65 18.3 64 64 WSW 13 20 29.91 1013 10 16 0.00 0.00
6:59 am 06:59 Mostly Cloudy 79 26.1 64 17.8 60 60 WSW 12 19 29.91 1013 10 16 0.00 0.00
7:59 am 07:59 Mostly Cloudy 79 26.1 64 17.8 60 60 WSW 9 15 29.93 1014 10 16 0.00 0.00
8:59 am 08:59 Mostly Cloudy 80 26.7 65 18.3 60 60 WSW 12 19 29.95 1014 10 16 0.00 0.00
9:59 am 09:59 Mostly Cloudy 80 26.7 65 18.3 60 60 WSW 12 19 29.94 1014 10 16 0.00 0.00
10:59 am 10:59 Mostly Cloudy 84 28.9 67 19.4 57 57 WSW 13 20 29.93 1014 10 16 0.00 0.00
11:59 am 11:59 Mostly Cloudy 84 28.9 68 20 59 59 SSW 10 17 29.91 1013 10 16 0.00 0.00
12:59 pm 12:59 Mostly Cloudy 81 27.2 69 20.6 67 67 SW 13 20 29.91 1013 10 16 0.00 0.00
1:59 pm 13:59 Cloudy with Light Rain 79 26.1 69 20.6 72 72 SW 10 17 29.91 1013 9 14 0.00 0.00
2:59 pm 14:59 Cloudy 80 26.7 73 22.8 79 79 SSW 12 19 29.88 1012 10 16 0.00 0.00
3:27 pm 15:27 Mostly Cloudy 79 26.1 71 21.7 77 77 SSW 9 15 29.89 1012 10 16 0.00 0.00
3:59 pm 15:59 Cloudy 78 25.6 70 21.1 76 76 S 12 19 29.88 1012 10 16 0.00 0.00
4:59 pm 16:59 Cloudy 79 26.1 69 20.6 72 72 SSW 10 17 29.88 1012 10 16 0.00 0.00
5:59 pm 17:59 Cloudy 79 26.1 70 21.1 74 74 S 6 9 29.86 1011 10 16 0.00 0.00
6:59 pm 18:59 Cloudy 79 26.1 71 21.7 77 77 S 8 13 29.86 1011 10 16 0.00 0.00
7:59 pm 19:59 Cloudy 78 25.6 71 21.7 79 79 S 9 15 29.85 1011 10 16 0.00 0.00
8:59 pm 20:59 Cloudy 77 25 70 21.1 79 79 SSW 7 11 29.85 1011 10 16 0.00 0.00
9:59 pm 21:59 Cloudy 77 25 70 21.1 79 79 SSW 7 11 29.86 1011 10 16 0.00 0.00
10:59 pm 22:59 Cloudy 77 25 70 21.1 79 79 SSW 7 11 29.86 1011 10 16 0.00 0.00
11:59 pm 23:59 Cloudy 76 24.4 70 21.1 82 82 SSW 8 13 29.84 1011 10 16 0.00 0.00

Powered by AerisWeather